[[{"header":{"parameterUnit":"m.s-1","parameterCategory":1,"la1":30.2991,"la2":30.254,"lo1":-89.0895,"lo2":-89.0444,"dy":0.0017,"dx":0.0017,"nx":28,"ny":28,"refTime":"2023-10-16T21:00:00:Z","depth":0,"parameterNumber":2,"parameterNumberName":"U-component_of_WINDS"},"data":[0,0,0,0,0,0,0,0,0,0,0,0,0,0,0,0,0,0,0,0,0,0,0,0,0,0,0,0,0,0,0,0,0,0,0,0,0,0,0,0,0,0,0,0,0,0,0,0,0,0,0,0,0,0,0,0,0,0,1.6642,1.6643,0,1.6698,1.6699,1.6699,1.671,1.671,1.6709,1.6709,1.6769,1.6771,1.6773,0,0,0,0,0,0,0,0,0,0,0,0,0,1.6548,1.655,1.6642,1.6643,1.6643,1.6698,1.6699,1.6699,1.671,1.671,1.6709,1.6709,1.6768,1.6771,1.6773,0,0,0,0,0,0,0,0,0,0,0,0,0,1.6595,1.655,1.6642,1.6655,1.6657,1.6698,1.6699,1.67,1.671,1.671,1.6709,1.6708,1.6768,1.6771,1.6774,1.6805,0,0,1.6783,1.6784,0,0,0,0,0,0,0,0,1.6592,1.6598,1.6653,1.6654,1.6657,1.6696,1.6687,1.6735,1.6711,1.669,1.6709,1.6708,1.6746,1.675,1.6762,1.6808,1.6811,1.6783,1.6785,1.6786,1.6787,0,0,0,0,0,0,0,1.6589,1.6596,1.6664,1.6653,1.6656,1.666,1.6666,1.6697,1.6721,1.6692,1.6693,1.6699,1.6747,1.6759,1.6764,1.6812,1.6783,1.6786,1.6787,1.6789,1.6887,1.6888,0,0,0,0,0,0,1.6583,1.6593,1.6662,1.6666,1.6622,1.6662,1.6668,1.6684,1.6721,1.6726,1.67,1.67,1.6755,1.676,1.6766,1.6806,1.6786,1.6789,1.6791,1.6886,1.6887,1.6888,0,0,0,0,0,0,1.6581,1.6589,1.666,1.663,1.6639,1.6664,1.6682,1.6686,1.6699,1.6727,1.6731,1.6708,1.6754,1.6762,1.6795,1.6808,1.679,1.6793,1.6885,1.6887,1.6888,1.6886,0,0,0,0,0,0,1.6578,1.6588,1.66,1.663,1.6641,1.6688,1.6683,1.6687,1.6703,1.6704,1.6736,1.674,1.6754,1.6791,1.6798,1.6812,1.6795,1.6884,1.6886,1.6887,1.6885,1.6887,1.6888,0,0,0,0,0,1.6575,1.6597,1.66,1.6608,1.6656,1.6688,1.6695,1.6709,1.6704,1.6717,1.6735,1.6739,1.6806,1.6794,1.6803,1.6817,1.6884,1.6886,1.6887,1.6884,1.6886,1.6888,0,0,0,0,0,0,1.6569,1.6602,1.6605,1.6638,1.666,1.669,1.6706,1.6711,1.6736,1.6735,1.6754,1.6761,1.6793,1.6809,1.6796,1.6851,1.6845,1.6848,1.6839,1.6841,1.6843,1.6839,1.6798,0,0,0,0,0,1.6571,1.6594,1.6622,1.6649,1.6659,1.6681,1.6696,1.6705,1.6729,1.6739,1.6759,1.6783,1.681,1.6827,1.6852,1.6887,1.6895,1.6902,1.6903,1.6905,1.6908,1.6928,1.6931,1.6894,1.6894,1.6894,0,0,1.6577,1.6597,1.6611,1.6648,1.6666,1.669,1.6689,1.6714,1.6733,1.6743,1.6776,1.6792,1.682,1.6854,1.6871,1.6868,1.692,1.6907,1.6908,1.691,1.693,1.6933,1.6936,1.6895,1.6895,1.6895,0,0,1.6599,1.6617,1.6641,1.6659,1.6686,1.6701,1.6706,1.6736,1.6746,1.6779,1.6788,1.6811,1.6855,1.6875,1.6891,1.6921,1.6926,1.6929,1.6938,1.6958,1.6961,1.6963,1.6974,1.6978,1.6932,1.6932,1.6932,0,1.6602,1.6638,1.6653,1.6678,1.6694,1.6704,1.6729,1.6747,1.6781,1.6793,1.679,1.6846,1.6866,1.6905,1.6912,1.6925,1.6933,1.6925,1.6959,1.6962,1.6964,1.6975,1.6979,1.6932,1.6932,1.6932,1.6932,0,1.6641,1.6666,1.6683,1.6715,1.6733,1.6758,1.6778,1.6795,1.6803,1.6817,1.6851,1.6875,1.6906,1.6916,1.6925,1.6957,1.6955,1.6955,1.6949,1.6968,1.6978,1.6982,1.6932,1.6932,1.6932,1.6932,0,0,1.6661,1.6701,1.6707,1.6722,1.6753,1.6773,1.6799,1.6828,1.6843,1.6867,1.6889,1.6927,1.6928,1.6946,1.6957,1.6974,1.6996,1.6972,1.6973,1.6975,1.7033,1.7033,1.7037,1.7,1.7001,1.7001,1.7031,0,1.6687,1.6732,1.6746,1.6785,1.6808,1.6818,1.6841,1.6863,1.6878,1.6901,1.6918,1.6944,1.6943,1.6954,1.6971,1.699,1.7008,1.6988,1.7022,1.7023,1.7014,1.7042,1.7042,1.7068,1.7035,1.7036,1.7036,0,1.6723,1.6746,1.6787,1.6815,1.6826,1.6846,1.6874,1.6895,1.6921,1.6931,1.6951,1.6961,1.6989,1.6982,1.7022,1.7008,1.7023,1.7034,1.7036,1.7039,1.703,1.7047,1.7077,1.7081,1.7043,1.7042,1.7042,0,1.6733,1.6775,1.6804,1.6817,1.6851,1.6865,1.688,1.6905,1.6922,1.6947,1.6958,1.6987,1.7002,1.7024,1.7042,1.7035,1.708,1.7074,1.709,1.7089,1.7098,1.7097,1.7131,1.7108,1.7108,1.7108,1.7108,0,1.676,1.6784,1.6809,1.6828,1.6856,1.6872,1.69,1.6916,1.6938,1.696,1.6971,1.6992,1.7014,1.7038,1.7052,1.7083,1.709,1.7099,1.7102,1.7098,1.7096,1.7107,1.7106,1.7109,1.7109,1.7109,1.7109,0,1.6775,1.6793,1.6826,1.6856,1.6864,1.6883,1.6909,1.6928,1.6943,1.6971,1.6979,1.7003,1.7032,1.7051,1.7088,1.7098,1.7131,1.7135,1.7122,1.7124,1.7138,1.7136,1.718,1.7186,1.7159,1.7159,1.7159,0,1.6791,1.681,1.6842,1.6857,1.6872,1.6896,1.6913,1.6931,1.6948,1.6979,1.6994,1.7024,1.7048,1.7094,1.7115,1.7144,1.7148,1.7161,1.7152,1.7147,1.7148,1.7146,1.7148,1.7162,1.7163,1.7163,1.7163,0,1.6818,1.6826,1.6849,1.6876,1.6896,1.6918,1.6941,1.6953,1.6975,1.6994,1.7023,1.7042,1.708,1.7109,1.7139,1.7156,1.7163,1.7166,1.7171,1.7166,1.7158,1.7162,1.7126,1.7165,1.7164,1.7164,1.7164,1.7164,1.6834,1.6851,1.6876,1.6902,1.6921,1.6942,1.696,1.6978,1.7002,1.7034,1.7043,1.7073,1.71,1.7141,1.7158,1.7183,1.7182,1.7189,1.7191,1.7192,1.7192,1.7154,1.7189,1.7189,1.7189,1.7189,1.7189,0,1.686,1.6877,1.6901,1.6932,1.6953,1.6957,1.6982,1.7,1.7026,1.7049,1.7073,1.7107,1.7135,1.7159,1.7188,1.7204,1.7208,1.7211,1.721,1.7213,1.7192,1.7184,1.7207,1.7207,1.7207,1.7207,1.7207,1.7207,1.6877,1.6906,1.6917,1.6957,1.6973,1.7002,1.7017,1.7036,1.7055,1.7092,1.7115,1.713,1.7154,1.7185,1.7212,1.7218,1.7229,1.7231,1.7238,1.7217,1.7215,1.7213,1.7206,1.7233,1.7233,1.7258,1.7258,1.7258]},{"header":{"parameterUnit":"m.s-1","parameterCategory":1,"la1":30.2991,"la2":30.254,"lo1":-89.0895,"lo2":-89.0444,"dy":0.0017,"dx":0.0017,"nx":28,"ny":28,"refTime":"2023-10-16T21:00:00:Z","depth":0,"parameterNumber":3,"parameterNumberName":"V-component_of_WINDS"},"data":[0,0,0,0,0,0,0,0,0,0,0,0,0,0,0,0,0,0,0,0,0,0,0,0,0,0,0,0,0,0,0,0,0,0,0,0,0,0,0,0,0,0,0,0,0,0,0,0,0,0,0,0,0,0,0,0,0,0,1.0259,1.0258,0,1.0203,1.0202,1.0201,1.0146,1.0145,1.0144,1.0144,1.0085,1.0084,1.0083,0,0,0,0,0,0,0,0,0,0,0,0,0,1.0314,1.0313,1.0259,1.0258,1.0257,1.0203,1.0202,1.0201,1.0146,1.0145,1.0144,1.0143,1.0085,1.0084,1.0083,0,0,0,0,0,0,0,0,0,0,0,0,0,1.0277,1.0313,1.0259,1.0223,1.0219,1.0203,1.0202,1.0201,1.0146,1.0145,1.0144,1.0143,1.0085,1.0084,1.0083,1.0096,0,0,1.0079,1.0078,0,0,0,0,0,0,0,0,1.0279,1.0275,1.0229,1.0226,1.0221,1.018,1.02,1.0166,1.0146,1.0174,1.0144,1.0142,1.0117,1.0113,1.0105,1.0094,1.0091,1.0079,1.0078,1.0077,1.0077,0,0,0,0,0,0,0,1.0282,1.0277,1.0236,1.0229,1.0224,1.0209,1.0202,1.0193,1.0152,1.0171,1.0167,1.0161,1.0115,1.0107,1.0103,1.009,1.0079,1.0078,1.0077,1.0076,1.0082,1.0083,0,0,0,0,0,0,1.029,1.028,1.0238,1.0235,1.0248,1.0209,1.0201,1.0194,1.0152,1.0145,1.0162,1.0159,1.0109,1.0105,1.0101,1.0111,1.0077,1.0076,1.0075,1.0081,1.0082,1.0083,0,0,0,0,0,0,1.0292,1.0287,1.024,1.0256,1.0249,1.0209,1.0201,1.0194,1.0185,1.0146,1.0138,1.0162,1.0108,1.0103,1.0097,1.0108,1.0075,1.0074,1.008,1.0081,1.0083,1.0132,0,0,0,0,0,0,1.0294,1.0288,1.0294,1.0257,1.0248,1.0239,1.0202,1.0194,1.0183,1.0178,1.0143,1.0136,1.0107,1.0099,1.0096,1.0105,1.0073,1.0079,1.008,1.0082,1.0129,1.0135,1.014,0,0,0,0,0,1.0296,1.0311,1.0295,1.029,1.0255,1.024,1.0235,1.0202,1.0185,1.0189,1.0163,1.0137,1.0108,1.0099,1.0095,1.0104,1.0078,1.008,1.0082,1.0127,1.0134,1.014,0,0,0,0,0,0,1.0351,1.0306,1.0287,1.0291,1.0269,1.023,1.0235,1.0211,1.0194,1.019,1.015,1.0142,1.014,1.0122,1.0113,1.0113,1.0089,1.009,1.0125,1.0131,1.0136,1.014,1.0072,0,0,0,0,0,1.0364,1.0356,1.0316,1.0323,1.0313,1.0276,1.0268,1.0245,1.0221,1.0211,1.0185,1.0162,1.0147,1.0138,1.0123,1.0127,1.0116,1.0131,1.0136,1.0141,1.0142,1.0138,1.0143,1.009,1.009,1.009,0,0,1.039,1.0364,1.0361,1.0334,1.0314,1.0305,1.0269,1.0262,1.0254,1.021,1.0202,1.0182,1.0153,1.0151,1.0149,1.0136,1.0154,1.0144,1.0148,1.0146,1.0141,1.0146,1.0151,1.0092,1.0091,1.0091,0,0,1.0432,1.0413,1.0415,1.0395,1.0366,1.0341,1.0341,1.0305,1.029,1.0281,1.0246,1.0236,1.0213,1.0192,1.0179,1.0209,1.0183,1.0206,1.0233,1.023,1.0234,1.0238,1.0245,1.0249,1.0207,1.0207,1.0207,0,1.0467,1.0453,1.0419,1.0412,1.0399,1.0359,1.0359,1.0342,1.0309,1.03,1.0286,1.0253,1.0231,1.0222,1.0229,1.0221,1.0217,1.0209,1.0237,1.024,1.0242,1.0249,1.0253,1.021,1.021,1.0209,1.0209,0,1.0497,1.0487,1.0492,1.046,1.0448,1.0446,1.0408,1.04,1.0377,1.0352,1.0341,1.0314,1.029,1.0286,1.0264,1.0272,1.0265,1.0245,1.0219,1.0251,1.0256,1.0259,1.0214,1.0213,1.0212,1.0211,0,0,1.0572,1.052,1.0522,1.0505,1.0469,1.046,1.0454,1.0431,1.0422,1.0401,1.0392,1.0372,1.0351,1.0336,1.0311,1.0309,1.033,1.0288,1.0287,1.0294,1.0334,1.0348,1.0351,1.0313,1.0314,1.0314,1.0335,0,1.0606,1.0593,1.056,1.0557,1.0545,1.0505,1.0499,1.0475,1.0451,1.0437,1.041,1.0395,1.0371,1.0361,1.0357,1.0329,1.0337,1.0327,1.0303,1.0302,1.0309,1.0355,1.037,1.0392,1.0337,1.0338,1.0338,0,1.0644,1.0623,1.0618,1.0579,1.0573,1.0569,1.0542,1.053,1.0501,1.0483,1.0465,1.0436,1.0425,1.0403,1.0384,1.0378,1.0366,1.035,1.035,1.0345,1.0321,1.0348,1.0398,1.04,1.0342,1.0341,1.0341,0,1.0695,1.0667,1.0659,1.0647,1.0602,1.0599,1.058,1.0549,1.0536,1.0513,1.0503,1.0479,1.0466,1.0447,1.0411,1.0399,1.0396,1.0371,1.0378,1.0379,1.0379,1.0379,1.0424,1.0375,1.0375,1.0375,1.0375,0,1.0734,1.0732,1.0681,1.0676,1.0671,1.0633,1.0629,1.0606,1.0578,1.0567,1.0531,1.052,1.0475,1.0459,1.0431,1.0418,1.0413,1.0397,1.0389,1.0399,1.04,1.0389,1.0386,1.0376,1.0375,1.0375,1.0375,0,1.0791,1.0757,1.0745,1.0703,1.0692,1.069,1.0653,1.0645,1.0619,1.0604,1.0599,1.0557,1.0535,1.0498,1.0466,1.0447,1.0439,1.0427,1.0449,1.0444,1.0452,1.045,1.049,1.0492,1.0444,1.0444,1.0445,0,1.0817,1.0814,1.0771,1.0761,1.0743,1.0727,1.0713,1.0674,1.066,1.0625,1.0621,1.0596,1.0574,1.0541,1.0507,1.0481,1.0467,1.0483,1.0463,1.0472,1.0464,1.0464,1.0462,1.0487,1.0487,1.0488,1.0489,0,1.0866,1.0848,1.083,1.0805,1.0789,1.0767,1.0743,1.0737,1.0692,1.0678,1.0655,1.0638,1.0605,1.058,1.0549,1.0527,1.0499,1.0495,1.0495,1.0504,1.0515,1.0506,1.0458,1.0494,1.0493,1.0493,1.0493,1.0493,1.0905,1.09,1.0868,1.0847,1.0825,1.0803,1.0793,1.0765,1.0746,1.0715,1.0693,1.0671,1.0638,1.0594,1.0573,1.0554,1.0542,1.0542,1.0542,1.0542,1.0545,1.052,1.0548,1.0548,1.0548,1.0548,1.0548,0,1.095,1.0927,1.0909,1.0876,1.0859,1.0836,1.0807,1.0794,1.0776,1.0748,1.0727,1.0699,1.0674,1.0637,1.0608,1.06,1.0586,1.0593,1.0592,1.0587,1.0559,1.056,1.0604,1.0604,1.0604,1.0604,1.0604,1.0604,1.0971,1.0959,1.0937,1.0913,1.0889,1.0868,1.0853,1.0832,1.0809,1.078,1.0759,1.0735,1.0702,1.0671,1.0645,1.0635,1.0625,1.0636,1.0621,1.0595,1.0589,1.0584,1.0586,1.0634,1.0634,1.065,1.0651,1.0651]}]]